Hourly Data Report for October 16, 2015

All times are specified in Local Standard Time (LST). Add 1 hour to adjust for Daylight Saving Time where and when it is observed.

PETAWAWA AWOS 2
ONTARIO

45°57'00.000" N
77°19'00.000" W
130.10 m
6106396
71625
YWA

Download Data

Hourly Data (October 2015)
Hourly Data Report for October 16, 2015
Temp Definition
°C
Dew Point Temp Definition
°C
Rel Hum Definition
%
Wind Dir Definition
10's deg

Wind Spd Definition
km/h
Visibility Definition
km
Stn Press Definition
kPa
Hmdx Definition


Wind Chill Definition


Weather Definition


TIME
00:00 5.9 4.5 91 28 13 14.5 99.23     Drizzle
01:00 5.7 4.2 90 28 11 14.5 99.25     Drizzle
02:00 5.8 4.4 91 28 7 14.5 99.32     LegendNANA
03:00 6.0 5.2 95 28 9 14.5 99.38     Rain
04:00 6.2 5.3 94 29 7 8.0 99.45     Rain
05:00 5.9 4.8 93 29 11 14.5 99.54     Rain
06:00 5.8 4.9 94 29 9 14.5 99.61     Rain
07:00 5.5 4.5 93 29 13 14.5 99.71     Drizzle
08:00 5.4 4.1 91 30 11 14.5 99.79     Drizzle
09:00 5.4 4.2 92 29 9 14.5 99.84     Drizzle
10:00 5.5 3.2 85 29 11 14.5 99.89     Drizzle
11:00 5.7 2.7 81 30 7 14.5 99.92     Drizzle
12:00 6.2 2.3 76 28 6 14.5 99.89     LegendNANA
13:00 7.2 2.7 73 33 9 14.5 99.82     LegendNANA
14:00 7.5 2.3 70 1 9 14.5 99.79     LegendNANA
15:00 7.5 2.2 69 34 9 14.5 99.78     LegendNANA
16:00 7.6 2.7 71 35 7 14.5 99.77     LegendNANA
17:00 6.8 3.5 80 32 6 14.5 99.78     Rain
18:00 5.5 3.8 89 35 9 9.7 99.83     Rain
19:00 4.7 3.9 94 28 4 8.0 99.85     Rain
20:00 4.8 3.0 88 34 13 11.3 99.89     Rain
21:00 4.4 3.0 91 31 9 14.5 99.92     Drizzle
22:00 3.0 1.3 89 32 17 14.5 99.98     Drizzle
23:00 2.4 1.2 92 30 15 14.5 100.03     Rain

Notes on Data Quality.

Legend

  • E = Estimated
  • M = Missing
  • NA = Not Available
  • ‡ = Partner data that is not subject to review by the National Climate Archives
Date modified: